| time (UTC) | temp F | wind direction | speed knots | gust knots | rain 1hr in | rain 24hr in | rain mn in | humidity % | barometer mb |
| 20260506221006 | 37 | 258 | 0.0 | 0.0 | 0.00 | 9.24 | 0.00 | 67 | 1008.7 |
| 20260506220508 | 38 | 258 | 0.0 | 0.0 | 0.00 | 9.32 | 0.00 | 67 | 1008.7 |
| 20260506215505 | 38 | 259 | 0.0 | 0.0 | 0.00 | 9.48 | 0.00 | 66 | 1008.6 |
| 20260506215007 | 38 | 256 | 0.0 | 0.0 | 0.00 | 9.56 | 0.00 | 65 | 1008.5 |
| 20260506214006 | 39 | 255 | 0.0 | 0.0 | 0.00 | 9.80 | 0.00 | 64 | 1008.4 |
| 20260506213506 | 39 | 258 | 0.0 | 0.0 | 0.00 | 9.92 | 0.00 | 64 | 1008.3 |
| 20260506213008 | 39 | 260 | 0.0 | 0.9 | 0.00 | 1.00 | 0.00 | 64 | 1008.2 |
| 20260506212506 | 39 | 260 | 0.0 | 0.9 | 0.00 | 1.01 | 0.00 | 64 | 1008.2 |
| 20260506212006 | 40 | 256 | 0.0 | 0.0 | 0.00 | 1.02 | 0.00 | 63 | 1008.1 |
| 20260506211506 | 40 | 262 | 0.0 | 0.0 | 0.00 | 1.03 | 0.00 | 62 | 1008.0 |
| 20260506210506 | 40 | 258 | 0.0 | 0.0 | 0.00 | 1.06 | 0.00 | 60 | 1008.0 |
| 20260506210007 | 41 | 259 | 0.0 | 0.0 | 0.00 | 1.07 | 0.00 | 60 | 1007.9 |
| 20260506205506 | 41 | 260 | 0.0 | 0.0 | 0.00 | 1.08 | 0.00 | 59 | 1007.9 |
| 20260506205007 | 41 | 260 | 0.0 | 0.0 | 0.00 | 1.09 | 0.00 | 58 | 1008.0 |
| 20260506204006 | 42 | 257 | 0.0 | 1.7 | 0.00 | 1.12 | 0.00 | 58 | 1007.8 |
| 20260506203009 | 43 | 259 | 0.0 | 0.0 | 0.00 | 1.14 | 0.00 | 56 | 1007.8 |
| 20260506202005 | 44 | 263 | 0.0 | 0.0 | 0.00 | 1.15 | 9.36 | 55 | 1007.8 |
| 20260506201505 | 44 | 260 | 0.0 | 0.0 | 0.00 | 1.16 | 9.36 | 54 | 1007.8 |
| 20260506201006 | 44 | 258 | 0.0 | 0.0 | 0.00 | 1.17 | 9.36 | 53 | 1007.8 |
| 20260506200505 | 45 | 261 | 0.0 | 0.0 | 0.00 | 1.18 | 9.36 | 53 | 1007.8 |
| 20260506200006 | 45 | 258 | 0.0 | 0.9 | 0.02 | 1.19 | 9.36 | 53 | 1007.8 |
| 20260506195504 | 45 | 258 | 0.0 | 0.9 | 0.06 | 1.21 | 9.36 | 53 | 1007.8 |
| 20260506195005 | 46 | 257 | 0.0 | 0.0 | 0.08 | 1.21 | 9.36 | 52 | 1007.8 |
| 20260506194506 | 46 | 258 | 0.0 | 0.0 | 0.14 | 1.23 | 9.36 | 51 | 1007.8 |
| 20260506194004 | 46 | 260 | 0.0 | 0.0 | 0.14 | 1.24 | 9.36 | 51 | 1007.7 |
| 20260506193006 | 47 | 259 | 0.0 | 0.0 | 0.20 | 1.28 | 9.36 | 49 | 1007.6 |
| 20260506192504 | 48 | 257 | 0.0 | 0.0 | 0.20 | 1.29 | 9.36 | 49 | 1007.6 |
| 20260506191505 | 48 | 256 | 0.0 | 0.9 | 0.20 | 1.32 | 9.36 | 49 | 1007.6 |
| 20260506191004 | 49 | 258 | 0.0 | 0.0 | 0.20 | 1.33 | 9.36 | 48 | 1007.7 |
| 20260506185504 | -6 | 263 | 0.0 | 1.7 | 0.14 | 1.36 | 9.30 | 44 | 1007.6 |
| 20260506185004 | 50 | 254 | 0.0 | 1.7 | 0.12 | 1.37 | 9.28 | 44 | 1007.5 |
| 20260506184505 | 15 | 347 | 0.0 | 0.0 | 0.06 | 1.37 | 9.22 | 43 | 1007.5 |
| 20260506184005 | -7 | 0 | 0.0 | 0.0 | 0.06 | 1.38 | 9.22 | 85 | 1007.4 |
| 20260506183504 | -6 | 0 | 0.0 | 0.0 | 0.06 | 1.40 | 9.22 | 85 | 1007.3 |
| 20260506183005 | 29 | 0 | 0.0 | 0.0 | 0.00 | 1.40 | 9.16 | 85 | 1007.3 |
| 20260506182005 | 29 | 0 | 0.0 | 0.0 | 0.00 | 1.43 | 9.16 | 85 | 1007.2 |
| 20260506181005 | 29 | 0 | 0.0 | 0.0 | 0.00 | 1.45 | 9.16 | 85 | 1007.1 |
| 20260506180006 | 29 | 0 | 0.0 | 0.0 | 0.00 | 1.47 | 9.16 | 85 | 1007.1 |
| 20260506175505 | 29 | 0 | 0.0 | 0.0 | 0.00 | 1.48 | 9.16 | 85 | 1007.1 |
| 20260506175005 | 29 | 0 | 0.0 | 0.0 | 0.00 | 1.50 | 9.16 | 85 | 1007.0 |
| 20260506174506 | 29 | 0 | 0.0 | 0.0 | 0.00 | 1.51 | 9.16 | 85 | 1007.0 |
| 20260506174004 | 29 | 0 | 0.0 | 0.0 | 0.00 | 1.52 | 9.16 | 85 | 1007.0 |
| 20260506173504 | 29 | 0 | 0.0 | 0.0 | 0.00 | 1.53 | 9.16 | 85 | 1006.9 |
| 20260506173005 | 29 | 0 | 0.0 | 0.0 | 0.00 | 1.54 | 9.16 | 85 | 1007.0 |
| 20260506172504 | 29 | 0 | 0.0 | 0.0 | 0.00 | 1.55 | 9.16 | 85 | 1007.0 |
| 20260506172004 | 29 | 0 | 0.0 | 0.0 | 0.00 | 1.57 | 9.16 | 85 | 1007.0 |
| 20260506171505 | 29 | 0 | 0.0 | 0.0 | 0.00 | 1.58 | 9.16 | 85 | 1007.0 |
| 20260506171005 | 29 | 0 | 0.0 | 0.0 | 0.00 | 1.59 | 9.16 | 85 | 1007.0 |
| 20260506165505 | 29 | 0 | 0.0 | 0.0 | 0.00 | 1.62 | 9.16 | 85 | 1007.1 |
| 20260506164505 | 29 | 0 | 0.0 | 0.0 | 0.00 | 1.65 | 9.16 | 85 | 1007.1 |
| 20260506164004 | 29 | 0 | 0.0 | 0.0 | 0.00 | 1.66 | 9.16 | 85 | 1007.1 |
| 20260506163504 | 29 | 0 | 0.0 | 0.0 | 0.00 | 1.67 | 9.16 | 85 | 1007.1 |
| 20260506163006 | 29 | 0 | 0.0 | 0.0 | 0.00 | 1.68 | 9.16 | 85 | 1007.1 |
| 20260506162505 | 29 | 0 | 0.0 | 0.0 | 0.00 | 1.69 | 9.16 | 85 | 1007.0 |
| 20260506161505 | 29 | 0 | 0.0 | 0.0 | 0.00 | 1.72 | 9.16 | 85 | 1006.9 |
| 20260506161004 | 29 | 0 | 0.0 | 0.0 | 0.00 | 1.73 | 9.16 | 85 | 1007.0 |
| 20260506160006 | 29 | 0 | 0.0 | 0.0 | 0.00 | 1.75 | 9.16 | 85 | 1007.0 |
| 20260506155504 | 29 | 0 | 0.0 | 0.0 | 0.00 | 1.76 | 9.16 | 85 | 1007.0 |
| 20260506155005 | 29 | 0 | 0.0 | 0.0 | 0.00 | 1.78 | 9.16 | 85 | 1007.0 |
| 20260506154505 | 29 | 0 | 0.0 | 0.0 | 0.00 | 1.79 | 9.16 | 85 | 1007.1 |
| 20260506154005 | 29 | 0 | 0.0 | 0.0 | 0.00 | 1.80 | 9.16 | 85 | 1007.1 |
| 20260506153504 | 29 | 0 | 0.0 | 0.0 | 0.00 | 1.81 | 9.16 | 85 | 1007.2 |
| 20260506153006 | 29 | 0 | 0.0 | 0.0 | 0.00 | 1.82 | 9.16 | 85 | 1007.2 |
| 20260506152504 | 29 | 0 | 0.0 | 0.0 | 0.00 | 1.84 | 9.16 | 85 | 1007.1 |
| 20260506152004 | 29 | 0 | 0.0 | 0.0 | 0.00 | 1.85 | 9.16 | 85 | 1007.1 |
| 20260506151506 | 29 | 0 | 0.0 | 0.0 | 0.00 | 1.86 | 9.16 | 85 | 1007.1 |
| 20260506151004 | 29 | 0 | 0.0 | 0.0 | 0.00 | 1.87 | 9.16 | 85 | 1007.1 |
| 20260506150505 | 29 | 0 | 0.0 | 0.0 | 0.00 | 1.88 | 9.16 | 85 | 1007.1 |
| 20260506150006 | 29 | 0 | 0.0 | 0.0 | 0.00 | 1.89 | 9.16 | 85 | 1007.1 |
| 20260506145504 | 29 | 0 | 0.0 | 0.0 | 0.00 | 1.91 | 9.16 | 85 | 1007.2 |
| 20260506145005 | 29 | 0 | 0.0 | 0.0 | 0.00 | 1.92 | 9.16 | 85 | 1007.4 |
| 20260506144505 | 29 | 0 | 0.0 | 0.0 | 0.00 | 1.93 | 9.16 | 85 | 1007.4 |
| 20260506144005 | 29 | 0 | 0.0 | 0.0 | 0.00 | 1.94 | 9.16 | 85 | 1007.4 |
| 20260506143505 | 29 | 0 | 0.0 | 0.0 | 0.00 | 1.95 | 9.16 | 85 | 1007.3 |
| 20260506143006 | 29 | 0 | 0.0 | 0.0 | 0.00 | 1.96 | 9.16 | 85 | 1007.3 |
| 20260506142504 | 29 | 0 | 0.0 | 0.0 | 0.00 | 1.98 | 9.16 | 85 | 1007.4 |
| 20260506142004 | 29 | 0 | 0.0 | 0.0 | 0.00 | 1.99 | 9.16 | 85 | 1007.2 |
| 20260506141505 | 29 | 0 | 0.0 | 0.0 | 0.00 | 2.00 | 9.16 | 85 | 1007.3 |
| 20260506141005 | 29 | 0 | 0.0 | 0.0 | 0.00 | 2.01 | 9.16 | 85 | 1007.3 |
| 20260506140504 | 29 | 0 | 0.0 | 0.0 | 0.00 | 2.02 | 9.16 | 85 | 1007.3 |
| 20260506140005 | 29 | 0 | 0.0 | 0.0 | 0.00 | 2.03 | 9.16 | 85 | 1007.4 |
| 20260506135505 | 29 | 0 | 0.0 | 0.0 | 0.00 | 2.05 | 9.16 | 85 | 1007.3 |
| 20260506135005 | 29 | 0 | 0.0 | 0.0 | 0.00 | 2.06 | 9.16 | 85 | 1007.3 |
| 20260506134504 | 29 | 0 | 0.0 | 0.0 | 0.00 | 2.07 | 9.16 | 85 | 1007.3 |
| 20260506134006 | 29 | 0 | 0.0 | 0.0 | 0.00 | 2.08 | 9.16 | 85 | 1007.3 |
| 20260506133504 | 29 | 0 | 0.0 | 0.0 | 0.00 | 2.09 | 9.16 | 85 | 1007.3 |
| 20260506133005 | 29 | 0 | 0.0 | 0.0 | 0.00 | 2.10 | 9.16 | 85 | 1007.4 |
| 20260506132504 | 29 | 0 | 0.0 | 0.0 | 0.00 | 2.12 | 9.16 | 85 | 1007.4 |
| 20260506132005 | 29 | 0 | 0.0 | 0.0 | 0.00 | 2.13 | 9.16 | 85 | 1007.4 |
| 20260506131505 | 29 | 0 | 0.0 | 0.0 | 0.00 | 2.14 | 9.16 | 85 | 1007.4 |
| 20260506131005 | 29 | 0 | 0.0 | 0.0 | 0.00 | 2.15 | 9.16 | 85 | 1007.4 |
| 20260506130505 | 29 | 0 | 0.0 | 0.0 | 0.00 | 2.16 | 9.16 | 85 | 1007.5 |
| 20260506130005 | 29 | 0 | 0.0 | 0.0 | 0.00 | 2.17 | 9.16 | 85 | 1007.5 |
| 20260506125505 | 29 | 0 | 0.0 | 0.0 | 0.00 | 2.19 | 9.16 | 85 | 1007.5 |
| 20260506125005 | 29 | 0 | 0.0 | 0.0 | 0.00 | 2.20 | 9.16 | 85 | 1007.6 |
| 20260506124504 | 29 | 0 | 0.0 | 0.0 | 0.00 | 2.21 | 9.16 | 85 | 1007.5 |
| 20260506124004 | 29 | 0 | 0.0 | 0.0 | 0.00 | 2.22 | 9.16 | 85 | 1007.5 |
| 20260506123505 | 29 | 0 | 0.0 | 0.0 | 0.00 | 2.23 | 9.16 | 85 | 1007.5 |
| 20260506123005 | 29 | 0 | 0.0 | 0.0 | 0.00 | 2.24 | 9.16 | 85 | 1007.5 |
| 20260506122505 | 29 | 0 | 0.0 | 0.0 | 0.00 | 2.26 | 9.16 | 85 | 1007.6 |
| 20260506122005 | 29 | 0 | 0.0 | 0.0 | 0.00 | 2.27 | 9.16 | 85 | 1007.7 |
| 20260506121504 | 29 | 0 | 0.0 | 0.0 | 0.00 | 2.28 | 9.16 | 85 | 1007.6 |
| 20260506120504 | 29 | 0 | 0.0 | 0.0 | 0.00 | 2.30 | 9.16 | 85 | 1007.5 |
| 20260506120005 | 29 | 0 | 0.0 | 0.0 | 0.00 | 2.31 | 9.16 | 85 | 1007.6 |
| 20260506115505 | 29 | 0 | 0.0 | 0.0 | 0.00 | 2.33 | 9.16 | 85 | 1007.6 |
| 20260506115005 | 29 | 0 | 0.0 | 0.0 | 0.00 | 2.34 | 9.16 | 85 | 1007.7 |
| 20260506114504 | 29 | 0 | 0.0 | 0.0 | 0.00 | 2.35 | 9.16 | 85 | 1007.7 |
| 20260506114006 | 29 | 0 | 0.0 | 0.0 | 0.00 | 2.36 | 9.16 | 85 | 1007.7 |
| 20260506113505 | 29 | 0 | 0.0 | 0.0 | 0.00 | 2.37 | 9.16 | 85 | 1007.9 |
| 20260506113005 | 29 | 0 | 0.0 | 0.0 | 0.00 | 2.39 | 9.16 | 85 | 1007.9 |
| 20260506112505 | 29 | 0 | 0.0 | 0.0 | 0.00 | 2.40 | 9.16 | 85 | 1007.8 |
| 20260506112005 | 29 | 0 | 0.0 | 0.0 | 0.00 | 2.41 | 9.16 | 85 | 1007.8 |
| 20260506111006 | 29 | 0 | 0.0 | 0.0 | 0.00 | 2.43 | 9.16 | 85 | 1007.9 |
| 20260506110504 | 29 | 0 | 0.0 | 0.0 | 0.00 | 2.44 | 9.16 | 85 | 1008.0 |
| 20260506110005 | 29 | 0 | 0.0 | 0.0 | 0.00 | 2.46 | 9.16 | 85 | 1007.9 |
| 20260506105504 | 29 | 0 | 0.0 | 0.0 | 0.00 | 2.47 | 9.16 | 85 | 1007.9 |
| 20260506105004 | 29 | 0 | 0.0 | 0.0 | 0.00 | 2.48 | 9.16 | 85 | 1007.9 |
| 20260506104006 | 29 | 0 | 0.0 | 0.0 | 0.00 | 2.50 | 9.16 | 85 | 1008.0 |
| 20260506103505 | 29 | 0 | 0.0 | 0.0 | 0.00 | 2.51 | 9.16 | 85 | 1008.0 |
| 20260506103005 | 29 | 0 | 0.0 | 0.0 | 0.00 | 2.53 | 9.16 | 85 | 1008.0 |
| 20260506102505 | 29 | 0 | 0.0 | 0.0 | 0.00 | 2.54 | 9.16 | 85 | 1008.0 |
| 20260506102004 | 29 | 0 | 0.0 | 0.0 | 0.00 | 2.55 | 9.16 | 85 | 1008.0 |
| 20260506101504 | 29 | 0 | 0.0 | 0.0 | 0.00 | 2.56 | 9.16 | 85 | 1008.0 |
| 20260506101004 | 29 | 0 | 0.0 | 0.0 | 0.00 | 2.57 | 9.16 | 85 | 1008.1 |
| 20260506100504 | 29 | 0 | 0.0 | 0.0 | 0.00 | 2.58 | 9.16 | 85 | 1008.2 |
| 20260506100005 | 29 | 0 | 0.0 | 0.0 | 0.00 | 2.60 | 9.16 | 85 | 1008.2 |
| 20260506095505 | 29 | 0 | 0.0 | 0.0 | 0.00 | 2.61 | 9.16 | 85 | 1008.2 |
| 20260506094506 | 29 | 0 | 0.0 | 0.0 | 0.00 | 2.63 | 9.16 | 85 | 1008.2 |
| 20260506094005 | 29 | 0 | 0.0 | 0.0 | 0.00 | 2.64 | 9.16 | 85 | 1008.2 |
| 20260506093504 | 29 | 0 | 0.0 | 0.0 | 0.00 | 2.65 | 9.16 | 85 | 1008.2 |
| 20260506093005 | 29 | 0 | 0.0 | 0.0 | 0.00 | 2.67 | 9.16 | 85 | 1008.2 |
| 20260506092505 | 29 | 0 | 0.0 | 0.0 | 0.00 | 2.68 | 9.16 | 85 | 1008.2 |
| 20260506092004 | 29 | 0 | 0.0 | 0.0 | 0.00 | 2.69 | 9.16 | 85 | 1008.3 |
| 20260506091504 | 29 | 0 | 0.0 | 0.0 | 0.00 | 2.70 | 9.16 | 85 | 1008.4 |
| 20260506091006 | 29 | 0 | 0.0 | 0.0 | 0.00 | 2.71 | 9.16 | 85 | 1008.3 |
| 20260506090504 | 29 | 0 | 0.0 | 0.0 | 0.00 | 2.72 | 9.16 | 85 | 1008.4 |
| 20260506090004 | 29 | 0 | 0.0 | 0.0 | 0.00 | 2.74 | 9.16 | 85 | 1008.4 |
| 20260506085504 | 29 | 0 | 0.0 | 0.0 | 0.00 | 2.75 | 9.16 | 85 | 1008.4 |
| 20260506085004 | 29 | 0 | 0.0 | 0.0 | 0.00 | 2.76 | 9.16 | 85 | 1008.5 |
| 20260506084504 | 29 | 0 | 0.0 | 0.0 | 0.00 | 2.77 | 9.16 | 85 | 1008.5 |
| 20260506084006 | 29 | 0 | 0.0 | 0.0 | 0.00 | 2.78 | 9.16 | 85 | 1008.5 |
| 20260506083504 | 29 | 0 | 0.0 | 0.0 | 0.00 | 2.79 | 9.16 | 85 | 1008.5 |
| 20260506083004 | 29 | 0 | 0.0 | 0.0 | 0.00 | 2.81 | 9.16 | 85 | 1008.5 |
| 20260506082505 | 29 | 0 | 0.0 | 0.0 | 0.00 | 2.82 | 9.16 | 85 | 1008.6 |
| 20260506082005 | 29 | 0 | 0.0 | 0.0 | 0.00 | 2.83 | 9.16 | 85 | 1008.6 |
| 20260506081505 | 29 | 0 | 0.0 | 0.0 | 0.00 | 2.84 | 9.16 | 85 | 1008.6 |
| 20260506081005 | 29 | 0 | 0.0 | 0.0 | 0.00 | 2.85 | 9.16 | 85 | 1008.7 |